| time (UTC) | temp F | wind direction | speed knots | gust knots | rain 1hr in | rain 24hr in | rain mn in | humidity % | barometer mb |
| 20260902100020 | 71 | 182 | 0.0 | 0.0 | 0.00 | 0.00 | 0.00 | 98 | 1016.9 |
| 20260902094520 | 71 | 182 | 0.0 | 0.0 | 0.00 | 0.00 | 0.00 | 98 | 1016.8 |
| 20260902093020 | 71 | 182 | 0.0 | 0.0 | 0.00 | 0.00 | 0.00 | 98 | 1016.8 |
| 20260902091517 | 71 | 182 | 0.0 | 0.0 | 0.00 | 0.00 | 0.00 | 97 | 1016.8 |
| 20260902090017 | 71 | 182 | 0.0 | 0.0 | 0.00 | 0.00 | 0.00 | 98 | 1016.7 |
| 20260902084519 | 71 | 182 | 0.0 | 0.0 | 0.00 | 0.00 | 0.00 | 97 | 1016.5 |
| 20260902083015 | 71 | 182 | 0.0 | 0.0 | 0.00 | 0.00 | 0.00 | 98 | 1016.3 |
| 20260902081513 | 71 | 182 | 0.0 | 0.0 | 0.00 | 0.00 | 0.00 | 97 | 1016.2 |
| 20260902080011 | 72 | 182 | 0.0 | 0.0 | 0.00 | 0.00 | 0.00 | 97 | 1016.2 |
| 20260902074510 | 72 | 182 | 0.0 | 0.0 | 0.00 | 0.00 | 0.00 | 97 | 1016.2 |
| 20260902073009 | 72 | 182 | 0.0 | 0.0 | 0.00 | 0.00 | 0.00 | 97 | 1016.3 |
| 20260902071514 | 72 | 197 | 0.0 | 0.0 | 0.00 | 0.00 | 0.00 | 97 | 1016.4 |
| 20260902070007 | 72 | 197 | 0.0 | 0.0 | 0.00 | 0.00 | 0.00 | 96 | 1016.6 |
| 20260902064520 | 72 | 198 | 0.0 | 0.0 | 0.00 | 0.00 | 0.00 | 97 | 1016.5 |
| 20260902063007 | 72 | 198 | 0.0 | 0.0 | 0.00 | 0.00 | 0.00 | 96 | 1016.4 |
| 20260902061502 | 72 | 198 | 0.0 | 0.0 | 0.00 | 0.00 | 0.00 | 96 | 1016.5 |
| 20260902060001 | 73 | 198 | 0.0 | 0.0 | 0.00 | 0.00 | 0.00 | 96 | 1016.5 |
| 20260902054504 | 73 | 198 | 0.0 | 0.0 | 0.00 | 0.00 | 0.00 | 95 | 1016.4 |
| 20260902053100 | 73 | 198 | 0.0 | 0.0 | 0.00 | 0.00 | 0.00 | 95 | 1016.4 |
| 20260902051600 | 73 | 198 | 0.0 | 0.0 | 0.00 | 0.00 | 0.00 | 94 | 1016.3 |
| 20260902050057 | 73 | 198 | 0.0 | 0.0 | 0.00 | 0.00 | 0.00 | 94 | 1016.3 |
| 20260902044555 | 73 | 198 | 0.0 | 0.0 | 0.00 | 0.00 | 0.00 | 94 | 1016.4 |
| 20260902043107 | 74 | 198 | 0.0 | 0.0 | 0.00 | 0.00 | 0.00 | 94 | 1016.5 |
| 20260902041602 | 74 | 198 | 0.0 | 0.0 | 0.00 | 0.00 | 0.00 | 93 | 1016.5 |
| 20260902040044 | 74 | 198 | 0.0 | 0.0 | 0.00 | 0.00 | 0.00 | 93 | 1016.5 |
| 20260902034549 | 74 | 198 | 0.0 | 0.0 | 0.00 | 0.00 | 0.00 | 93 | 1016.3 |
| 20260902033049 | 75 | 198 | 0.0 | 0.0 | 0.00 | 0.00 | 0.00 | 93 | 1016.3 |
| 20260902031542 | 75 | 198 | 0.0 | 0.0 | 0.00 | 0.00 | 0.00 | 92 | 1016.5 |
| 20260902030045 | 75 | 198 | 0.0 | 0.0 | 0.00 | 0.00 | 0.00 | 91 | 1016.4 |
| 20260902024542 | 76 | 198 | 0.0 | 0.0 | 0.00 | 0.00 | 0.00 | 91 | 1016.3 |
| 20260902023041 | 76 | 198 | 0.0 | 0.0 | 0.00 | 0.00 | 0.00 | 91 | 1016.3 |
| 20260902021540 | 76 | 198 | 0.0 | 0.0 | 0.00 | 0.00 | 0.00 | 90 | 1016.2 |
| 20260902020043 | 77 | 198 | 0.0 | 0.0 | 0.00 | 0.00 | 0.00 | 89 | 1016.2 |
| 20260902014548 | 77 | 198 | 0.0 | 0.0 | 0.00 | 0.00 | 0.00 | 88 | 1016.1 |
| 20260902013050 | 78 | 198 | 0.0 | 0.0 | 0.00 | 0.00 | 0.00 | 87 | 1016.0 |
| 20260902011538 | 78 | 198 | 0.0 | 0.0 | 0.00 | 0.00 | 0.00 | 86 | 1015.9 |
| 20260902010048 | 79 | 198 | 0.0 | 0.0 | 0.00 | 0.00 | 0.00 | 85 | 1015.8 |
| 20260902004538 | 80 | 198 | 0.0 | 0.0 | 0.00 | 0.00 | 0.00 | 84 | 1015.7 |
| 20260902003111 | 81 | 198 | 0.0 | 0.0 | 0.00 | 0.00 | 0.00 | 81 | 1015.6 |
| 20260902001537 | 82 | 198 | 0.0 | 0.0 | 0.00 | 0.00 | 0.00 | 78 | 1015.7 |
| 20260902000037 | 83 | 198 | 0.0 | 0.0 | 0.00 | 0.00 | 0.00 | 77 | 1015.7 |
| 20260901234538 | 85 | 203 | 0.0 | 0.0 | 0.00 | 0.00 | 0.00 | 74 | 1015.8 |
| 20260901233037 | 86 | 224 | 0.0 | 0.0 | 0.00 | 0.00 | 0.00 | 72 | 1015.8 |
| 20260901231540 | 87 | 224 | 0.0 | 0.0 | 0.00 | 0.00 | 0.00 | 68 | 1015.8 |
| 20260901230033 | 88 | 225 | 0.0 | 0.0 | 0.00 | 0.00 | 0.00 | 66 | 1015.8 |
| 20260901224532 | 89 | 229 | 0.0 | 1.7 | 0.00 | 0.00 | 0.00 | 63 | 1015.9 |
| 20260901223032 | 89 | 274 | 1.7 | 2.6 | 0.00 | 0.00 | 0.00 | 62 | 1015.7 |
| 20260901221538 | 90 | 236 | 0.0 | 3.5 | 0.00 | 0.00 | 0.00 | 61 | 1015.7 |
| 20260901220037 | 91 | 183 | 1.7 | 4.3 | 0.00 | 0.00 | 0.00 | 59 | 1015.7 |
| 20260901214529 | 91 | 207 | 0.0 | 2.6 | 0.00 | 0.00 | 0.00 | 59 | 1015.7 |
| 20260901213028 | 91 | 172 | 0.0 | 0.0 | 0.00 | 0.00 | 0.00 | 57 | 1015.8 |
| 20260901211527 | 92 | 123 | 0.0 | 0.0 | 0.00 | 0.00 | 0.00 | 56 | 1015.8 |
| 20260901210026 | 92 | 127 | 0.0 | 0.9 | 0.00 | 0.00 | 0.00 | 56 | 1016.0 |
| 20260901204527 | 91 | 56 | 0.0 | 1.7 | 0.00 | 0.00 | 0.00 | 60 | 1016.1 |
| 20260901203023 | 91 | 243 | 0.0 | 1.7 | 0.00 | 0.00 | 0.00 | 63 | 1016.3 |
| 20260901201521 | 92 | 167 | 0.0 | 0.0 | 0.00 | 0.00 | 0.00 | 61 | 1016.4 |
| 20260901200020 | 92 | 169 | 0.0 | 1.7 | 0.00 | 0.00 | 0.00 | 61 | 1016.5 |
| 20260901194518 | 90 | 191 | 0.0 | 0.0 | 0.00 | 0.00 | 0.00 | 69 | 1016.6 |
| 20260901193017 | 89 | 191 | 0.0 | 0.0 | 0.00 | 0.00 | 0.00 | 70 | 1016.7 |
| 20260901191514 | 91 | 196 | 0.0 | 0.0 | 0.00 | 0.00 | 0.00 | 65 | 1016.9 |
| 20260901190016 | 92 | 196 | 0.0 | 1.7 | 0.00 | 0.00 | 0.00 | 62 | 1017.1 |
| 20260901184512 | 94 | 248 | 0.9 | 4.3 | 0.00 | 0.00 | 0.00 | 56 | 1017.1 |
| 20260901183010 | 94 | 266 | 0.0 | 3.5 | 0.00 | 0.00 | 0.00 | 58 | 1017.2 |
| 20260901181511 | 94 | 60 | 0.0 | 3.5 | 0.00 | 0.00 | 0.00 | 57 | 1017.4 |
| 20260901180008 | 94 | 60 | 0.9 | 3.5 | 0.00 | 0.25 | 0.00 | 55 | 1017.5 |
| 20260901174507 | 94 | 221 | 1.7 | 3.5 | 0.00 | 0.25 | 0.00 | 56 | 1017.5 |
| 20260901173005 | 93 | 247 | 0.0 | 4.3 | 0.00 | 0.25 | 0.00 | 60 | 1017.8 |
| 20260901171503 | 93 | 62 | 0.0 | 4.3 | 0.00 | 0.25 | 0.00 | 60 | 1017.9 |
| 20260901170105 | 92 | 39 | 0.0 | 2.6 | 0.00 | 0.25 | 0.00 | 61 | 1018.3 |
| 20260901164611 | 91 | 67 | 0.0 | 3.5 | 0.00 | 0.25 | 0.00 | 62 | 1018.5 |
| 20260901163112 | 91 | 307 | 0.0 | 2.6 | 0.00 | 0.25 | 0.00 | 65 | 1018.7 |
| 20260901161549 | 90 | 50 | 0.9 | 2.6 | 0.00 | 0.25 | 0.00 | 66 | 1018.9 |
| 20260901160047 | 89 | 96 | 0.9 | 0.0 | 0.00 | 0.00 | 0.00 | 68 | 1018.9 |
| 20260901154552 | 88 | 252 | 1.7 | 3.5 | 0.00 | 0.25 | 0.00 | 70 | 1019.1 |
| 20260901153044 | 88 | 162 | 0.0 | 0.9 | 0.00 | 0.25 | 0.00 | 70 | 1018.9 |
| 20260901151538 | 87 | 221 | 0.0 | 1.7 | 0.00 | 0.25 | 0.00 | 72 | 1019.1 |
| 20260901150034 | 85 | 231 | 0.0 | 2.6 | 0.00 | 0.25 | 0.00 | 74 | 1019.2 |
| 20260901144532 | 85 | 233 | 0.0 | 1.7 | 0.00 | 0.25 | 0.00 | 77 | 1019.1 |
| 20260901143030 | 84 | 217 | 0.0 | 0.9 | 0.00 | 0.25 | 0.00 | 79 | 1019.3 |
| 20260901141525 | 82 | 181 | 0.0 | 1.7 | 0.00 | 0.25 | 0.00 | 82 | 1019.3 |
| 20260901140022 | 81 | 269 | 0.0 | 1.7 | 0.00 | 0.25 | 0.00 | 82 | 1019.3 |
| 20260901134518 | 80 | 250 | 0.0 | 0.9 | 0.00 | 0.25 | 0.00 | 89 | 1019.3 |
| 20260901133014 | 79 | 228 | 0.0 | 0.9 | 0.00 | 0.25 | 0.00 | 94 | 1019.2 |
| 20260901131510 | 78 | 139 | 0.0 | 0.0 | 0.00 | 0.25 | 0.00 | 96 | 1019.3 |
| 20260901130008 | 76 | 139 | 0.0 | 0.0 | 0.00 | 0.25 | 0.00 | 98 | 1019.5 |
| 20260901124505 | 75 | 139 | 0.0 | 0.0 | 0.00 | 0.25 | 0.00 | 99 | 1019.4 |
| 20260901123001 | 73 | 139 | 0.0 | 0.0 | 0.00 | 0.25 | 0.00 | 99 | 1019.3 |
| 20260901121559 | 72 | 139 | 0.0 | 0.0 | 0.00 | 0.25 | 0.00 | 99 | 1019.1 |
| 20260901120056 | 69 | 139 | 0.0 | 0.0 | 0.00 | 0.25 | 0.00 | 99 | 1018.9 |
| 20260901114554 | 68 | 139 | 0.0 | 0.0 | 0.00 | 0.25 | 0.00 | 99 | 1018.6 |
| 20260901113051 | 68 | 139 | 0.0 | 0.0 | 0.00 | 0.25 | 0.00 | 99 | 1018.3 |
| 20260901111548 | 68 | 139 | 0.0 | 0.0 | 0.00 | 0.25 | 0.00 | 99 | 1018.1 |
| 20260901110049 | 68 | 139 | 0.0 | 0.0 | 0.00 | 0.25 | 0.00 | 99 | 1017.9 |
| 20260901104550 | 68 | 139 | 0.0 | 0.0 | 0.00 | 0.25 | 0.00 | 99 | 1017.8 |
| 20260901103045 | 68 | 139 | 0.0 | 0.0 | 0.00 | 0.25 | 0.00 | 99 | 1017.7 |
| 20260901101545 | 69 | 139 | 0.0 | 0.0 | 0.00 | 0.25 | 0.00 | 99 | 1017.7 |